DL1882 KMSP-KMSN

Flight info

Callsign DL1882
Flight time 0h 38m
Altitude 25000
Route COULT7 DLL DCT
Aircraft A320/M-SDE3FGHIRWY/LB1

Departure

Time 2026-04-24 13:54
Airport Minneapolis–Saint Paul International Airport / Wold–Chamberlain Field (KMSP)

Arrival

Time 2026-04-24 14:33
Airport Dane County Regional Truax Field (KMSN)
Time Latitude Longitude Altitude Speed Heading
2026-04-24 13:22 44.88375 -93.20659 824 ft 0 kts 210°
2026-04-24 13:37 44.88389 -93.20648 827 ft 2 kts 210°
2026-04-24 13:37 44.88403 -93.20635 826 ft 2 kts 248°
2026-04-24 13:37 44.88407 -93.20613 825 ft 2 kts 258°
2026-04-24 13:38 44.88407 -93.20612 825 ft 0 kts 258°
2026-04-24 13:42 44.88409 -93.20624 832 ft 5 kts 286°
2026-04-24 13:42 44.88444 -93.20649 832 ft 6 kts 344°
2026-04-24 13:43 44.88492 -93.20658 833 ft 8 kts 353°
2026-04-24 13:43 44.88550 -93.20678 832 ft 10 kts 328°
2026-04-24 13:43 44.88588 -93.20759 831 ft 10 kts 299°
2026-04-24 13:43 44.88624 -93.20846 835 ft 10 kts 301°
2026-04-24 13:44 44.88663 -93.20937 836 ft 12 kts 302°
2026-04-24 13:44 44.88707 -93.21037 835 ft 12 kts 301°
2026-04-24 13:44 44.88748 -93.21133 836 ft 11 kts 301°
2026-04-24 13:44 44.88784 -93.21227 838 ft 11 kts 285°
2026-04-24 13:45 44.88749 -93.21326 835 ft 11 kts 225°
2026-04-24 13:45 44.88703 -93.21392 840 ft 8 kts 226°
2026-04-24 13:45 44.88667 -93.21444 843 ft 7 kts 224°
2026-04-24 13:45 44.88630 -93.21493 837 ft 7 kts 224°
2026-04-24 13:46 44.88597 -93.21538 840 ft 6 kts 224°
2026-04-24 13:46 44.88572 -93.21573 839 ft 4 kts 224°
2026-04-24 13:46 44.88534 -93.21627 844 ft 12 kts 225°
2026-04-24 13:46 44.88476 -93.21709 837 ft 12 kts 225°
2026-04-24 13:47 44.88416 -93.21796 837 ft 12 kts 225°
2026-04-24 13:47 44.88345 -93.21841 838 ft 11 kts 176°
2026-04-24 13:47 44.88287 -93.21781 835 ft 11 kts 127°
2026-04-24 13:47 44.88245 -93.21687 830 ft 12 kts 120°
2026-04-24 13:48 44.88203 -93.21581 835 ft 12 kts 122°
2026-04-24 13:48 44.88151 -93.21493 829 ft 12 kts 145°
2026-04-24 13:48 44.88077 -93.21438 831 ft 13 kts 141°
2026-04-24 13:48 44.88031 -93.21340 829 ft 11 kts 120°
2026-04-24 13:49 44.88016 -93.21250 834 ft 9 kts 91°
2026-04-24 13:49 44.88011 -93.21154 834 ft 11 kts 102°
2026-04-24 13:49 44.87980 -93.21066 834 ft 9 kts 120°
2026-04-24 13:49 44.87949 -93.20995 833 ft 7 kts 122°
2026-04-24 13:50 44.87912 -93.20910 836 ft 11 kts 121°
2026-04-24 13:50 44.87875 -93.20823 829 ft 10 kts 121°
2026-04-24 13:50 44.87836 -93.20736 832 ft 11 kts 123°
2026-04-24 13:50 44.87794 -93.20649 834 ft 11 kts 126°
2026-04-24 13:51 44.87752 -93.20566 830 ft 12 kts 122°
2026-04-24 13:51 44.87693 -93.20429 827 ft 18 kts 122°
2026-04-24 13:51 44.87630 -93.20285 824 ft 17 kts 122°
2026-04-24 13:51 44.87568 -93.20143 823 ft 17 kts 120°
2026-04-24 13:52 44.87522 -93.20037 827 ft 8 kts 132°
2026-04-24 13:52 44.87476 -93.20036 829 ft 7 kts 208°
2026-04-24 13:52 44.87437 -93.20070 830 ft 9 kts 212°
2026-04-24 13:52 44.87390 -93.20144 829 ft 11 kts 253°
2026-04-24 13:53 44.87402 -93.20240 824 ft 0 kts 297°
2026-04-24 13:53 44.87409 -93.20259 823 ft 10 kts 298°
2026-04-24 13:53 44.87592 -93.20676 828 ft 88 kts 301°
2026-04-24 13:54 44.88030 -93.21669 839 ft 147 kts 306°
2026-04-24 13:54 44.88580 -93.22874 1563 ft 147 kts 304°
2026-04-24 13:54 44.89123 -93.24134 2375 ft 154 kts 303°
2026-04-24 13:54 44.89691 -93.25491 2902 ft 171 kts 305°
2026-04-24 13:55 44.90553 -93.26737 3233 ft 191 kts 335°
2026-04-24 13:55 44.91929 -93.26923 3646 ft 218 kts 14°
2026-04-24 13:55 44.93219 -93.25575 4178 ft 251 kts 53°
2026-04-24 13:55 44.93713 -93.23125 4933 ft 275 kts 89°
2026-04-24 13:56 44.93223 -93.20457 5782 ft 288 kts 112°
2026-04-24 13:56 44.92276 -93.17934 6692 ft 294 kts 121°
2026-04-24 13:56 44.91562 -93.16305 7304 ft 296 kts 122°
2026-04-24 13:56 44.90144 -93.12922 8544 ft 302 kts 120°
2026-04-24 13:57 44.89158 -93.10291 9478 ft 306 kts 118°
2026-04-24 13:57 44.88228 -93.07561 10270 ft 314 kts 116°
2026-04-24 13:57 44.87296 -93.04643 10614 ft 338 kts 115°
2026-04-24 13:57 44.86326 -93.01496 10878 ft 362 kts 115°
2026-04-24 13:58 44.85320 -92.98167 11420 ft 374 kts 114°
2026-04-24 13:58 44.84300 -92.94770 12158 ft 379 kts 114°
2026-04-24 13:58 44.83262 -92.91341 12955 ft 382 kts 114°
2026-04-24 13:58 44.82566 -92.89056 13506 ft 384 kts 114°
2026-04-24 13:59 44.81501 -92.85585 14230 ft 387 kts 115°
2026-04-24 13:59 44.80427 -92.82087 14887 ft 392 kts 115°
2026-04-24 13:59 44.79343 -92.78556 15596 ft 394 kts 115°
2026-04-24 13:59 44.78249 -92.75003 16285 ft 398 kts 115°
2026-04-24 14:00 44.77143 -92.71421 16944 ft 401 kts 116°
2026-04-24 14:00 44.76023 -92.67806 17648 ft 404 kts 116°
2026-04-24 14:00 44.74899 -92.64182 18373 ft 404 kts 116°
2026-04-24 14:00 44.73770 -92.60550 19031 ft 406 kts 116°
2026-04-24 14:01 44.72634 -92.56899 19631 ft 409 kts 116°
2026-04-24 14:01 44.71489 -92.53218 20206 ft 413 kts 117°
2026-04-24 14:01 44.70262 -92.49555 20765 ft 415 kts 122°
2026-04-24 14:01 44.68685 -92.46162 21304 ft 416 kts 129°
2026-04-24 14:02 44.66988 -92.42857 21839 ft 419 kts 129°
2026-04-24 14:02 44.65272 -92.39519 22365 ft 422 kts 129°
2026-04-24 14:02 44.63540 -92.36157 22870 ft 426 kts 129°
2026-04-24 14:02 44.61800 -92.32776 23368 ft 429 kts 129°
2026-04-24 14:03 44.60044 -92.29361 23773 ft 432 kts 129°
2026-04-24 14:03 44.58292 -92.25948 24271 ft 430 kts 130°
2026-04-24 14:03 44.56541 -92.22537 24696 ft 431 kts 131°
2026-04-24 14:03 44.54789 -92.19137 24823 ft 431 kts 131°
2026-04-24 14:04 44.53011 -92.15711 24855 ft 436 kts 131°
2026-04-24 14:04 44.51222 -92.12269 24841 ft 438 kts 131°
2026-04-24 14:04 44.49432 -92.08816 24823 ft 438 kts 131°
2026-04-24 14:04 44.47641 -92.05362 24833 ft 438 kts 131°
2026-04-24 14:05 44.45852 -92.01909 24826 ft 438 kts 131°
2026-04-24 14:05 44.44056 -91.98448 24816 ft 439 kts 131°
2026-04-24 14:05 44.42262 -91.94997 24816 ft 439 kts 131°
2026-04-24 14:05 44.40465 -91.91548 24801 ft 439 kts 131°
2026-04-24 14:06 44.38665 -91.88100 24800 ft 438 kts 132°
2026-04-24 14:06 44.36925 -91.84594 24815 ft 441 kts 127°
2026-04-24 14:06 44.35458 -91.80811 24825 ft 443 kts 124°
2026-04-24 14:06 44.34025 -91.77014 24827 ft 442 kts 124°
2026-04-24 14:07 44.32590 -91.73222 24827 ft 441 kts 124°
2026-04-24 14:07 44.31154 -91.69442 24827 ft 440 kts 124°
2026-04-24 14:07 44.29716 -91.65669 24815 ft 440 kts 124°
2026-04-24 14:07 44.28281 -91.61908 24843 ft 439 kts 124°
2026-04-24 14:08 44.26843 -91.58143 24843 ft 439 kts 124°
2026-04-24 14:08 44.25404 -91.54388 24832 ft 439 kts 124°
2026-04-24 14:08 44.23964 -91.50629 24799 ft 438 kts 124°
2026-04-24 14:08 44.22532 -91.46888 24819 ft 437 kts 124°
2026-04-24 14:09 44.21102 -91.43152 24811 ft 436 kts 125°
2026-04-24 14:09 44.19672 -91.39427 24806 ft 436 kts 125°
2026-04-24 14:09 44.18238 -91.35709 24798 ft 436 kts 125°
2026-04-24 14:09 44.16800 -91.31992 24784 ft 436 kts 125°
2026-04-24 14:10 44.15364 -91.28277 24787 ft 436 kts 125°
2026-04-24 14:10 44.13927 -91.24564 24786 ft 436 kts 125°
2026-04-24 14:10 44.12489 -91.20847 24787 ft 436 kts 125°
2026-04-24 14:10 44.11051 -91.17132 24789 ft 436 kts 125°
2026-04-24 14:11 44.09613 -91.13419 24747 ft 436 kts 126°
2026-04-24 14:11 44.08179 -91.09722 24784 ft 433 kts 126°
2026-04-24 14:11 44.05335 -91.02422 24801 ft 431 kts 126°
2026-04-24 14:12 44.03904 -90.98764 24802 ft 430 kts 126°
2026-04-24 14:12 44.02474 -90.95113 24786 ft 430 kts 126°
2026-04-24 14:12 44.01044 -90.91458 24779 ft 431 kts 126°
2026-04-24 14:12 43.99611 -90.87796 24777 ft 431 kts 126°
2026-04-24 14:13 43.98176 -90.84132 24779 ft 432 kts 126°
2026-04-24 14:13 43.96740 -90.80469 24778 ft 432 kts 126°
2026-04-24 14:13 43.95305 -90.76811 24778 ft 432 kts 126°
2026-04-24 14:13 43.93865 -90.73148 24777 ft 433 kts 126°
2026-04-24 14:14 43.92419 -90.69477 24782 ft 434 kts 127°
2026-04-24 14:14 43.90970 -90.65809 24792 ft 434 kts 127°
2026-04-24 14:14 43.88070 -90.58475 24791 ft 433 kts 127°
2026-04-24 14:15 43.86618 -90.54811 24789 ft 433 kts 127°
2026-04-24 14:15 43.85149 -90.51108 24785 ft 433 kts 127°
2026-04-24 14:15 43.83699 -90.47455 24762 ft 433 kts 127°
2026-04-24 14:15 43.82250 -90.43806 24739 ft 433 kts 127°
2026-04-24 14:16 43.80816 -90.40200 24735 ft 433 kts 127°
2026-04-24 14:16 43.79356 -90.36542 24704 ft 435 kts 127°
2026-04-24 14:16 43.77865 -90.32820 24743 ft 438 kts 127°
2026-04-24 14:17 43.74927 -90.25485 24755 ft 439 kts 127°
2026-04-24 14:17 43.73448 -90.21791 24658 ft 437 kts 127°
2026-04-24 14:17 43.70526 -90.14493 24183 ft 431 kts 127°
2026-04-24 14:18 43.69068 -90.10874 23952 ft 429 kts 127°
2026-04-24 14:18 43.67627 -90.07293 23377 ft 425 kts 127°
2026-04-24 14:18 43.66194 -90.03740 22615 ft 421 kts 126°
2026-04-24 14:18 43.64776 -90.00231 21984 ft 416 kts 126°
2026-04-24 14:19 43.63827 -89.97886 21526 ft 413 kts 126°
2026-04-24 14:19 43.61973 -89.93301 20767 ft 406 kts 126°
2026-04-24 14:19 43.60601 -89.89917 20202 ft 402 kts 125°
2026-04-24 14:19 43.59235 -89.86559 19687 ft 399 kts 125°
2026-04-24 14:20 43.57881 -89.83233 19162 ft 396 kts 125°
2026-04-24 14:20 43.56539 -89.79931 18637 ft 393 kts 125°
2026-04-24 14:20 43.55028 -89.76849 18135 ft 384 kts 134°
2026-04-24 14:20 43.53228 -89.74259 17605 ft 375 kts 143°
2026-04-24 14:21 43.51245 -89.72028 17324 ft 363 kts 145°
2026-04-24 14:21 43.49298 -89.69838 16851 ft 359 kts 145°
2026-04-24 14:21 43.47379 -89.67665 16359 ft 356 kts 144°
2026-04-24 14:21 43.45476 -89.65504 15862 ft 353 kts 144°
2026-04-24 14:22 43.43559 -89.63330 15350 ft 351 kts 144°
2026-04-24 14:22 43.41699 -89.61229 14849 ft 350 kts 144°
2026-04-24 14:22 43.37911 -89.56954 13790 ft 349 kts 143°
2026-04-24 14:23 43.36030 -89.54834 13228 ft 350 kts 143°
2026-04-24 14:23 43.34153 -89.52721 12668 ft 348 kts 143°
2026-04-24 14:23 43.32283 -89.50622 12122 ft 347 kts 143°
2026-04-24 14:23 43.30421 -89.48529 11568 ft 346 kts 143°
2026-04-24 14:24 43.28561 -89.46443 11021 ft 345 kts 143°
2026-04-24 14:24 43.26718 -89.44376 10690 ft 337 kts 143°
2026-04-24 14:24 43.24943 -89.42383 10570 ft 323 kts 144°
2026-04-24 14:24 43.23241 -89.40474 10448 ft 310 kts 144°
2026-04-24 14:25 43.22147 -89.39251 10308 ft 304 kts 144°
2026-04-24 14:25 43.19972 -89.36823 9963 ft 299 kts 144°
2026-04-24 14:25 43.18359 -89.35026 9830 ft 299 kts 144°
2026-04-24 14:25 43.16745 -89.33227 9713 ft 299 kts 143°
2026-04-24 14:26 43.15131 -89.31428 9442 ft 300 kts 143°
2026-04-24 14:26 43.13509 -89.29621 8869 ft 298 kts 143°
2026-04-24 14:26 43.11933 -89.27863 8334 ft 295 kts 143°
2026-04-24 14:26 43.10343 -89.26093 7786 ft 294 kts 143°
2026-04-24 14:27 43.08739 -89.24310 7234 ft 292 kts 143°
2026-04-24 14:27 43.07165 -89.22564 6686 ft 290 kts 143°
2026-04-24 14:27 43.05608 -89.20832 6145 ft 288 kts 143°
2026-04-24 14:27 43.04047 -89.19098 5574 ft 287 kts 144°
2026-04-24 14:28 43.02332 -89.17784 4829 ft 281 kts 171°
2026-04-24 14:28 43.00479 -89.17895 4086 ft 267 kts 204°
2026-04-24 14:28 42.99075 -89.19381 3401 ft 252 kts 241°
2026-04-24 14:28 42.98713 -89.21560 3120 ft 227 kts 280°
2026-04-24 14:29 42.99439 -89.23295 3017 ft 207 kts 322°
2026-04-24 14:29 43.00769 -89.24024 2938 ft 209 kts 340°
2026-04-24 14:29 43.02134 -89.24560 2856 ft 199 kts 341°
2026-04-24 14:29 43.03432 -89.25060 2770 ft 191 kts 341°
2026-04-24 14:30 43.04287 -89.25386 2722 ft 187 kts 341°
2026-04-24 14:30 43.05903 -89.25995 2661 ft 174 kts 341°
2026-04-24 14:30 43.07056 -89.26420 2458 ft 169 kts 342°
2026-04-24 14:30 43.08142 -89.26815 2266 ft 151 kts 342°
2026-04-24 14:31 43.09110 -89.27162 2033 ft 138 kts 340°
2026-04-24 14:31 43.09902 -89.27806 1817 ft 129 kts 312°
2026-04-24 14:31 43.10533 -89.28672 1637 ft 129 kts 315°
2026-04-24 14:31 43.11197 -89.29530 1457 ft 132 kts 316°
2026-04-24 14:32 43.11860 -89.30385 1344 ft 132 kts 315°
2026-04-24 14:32 43.12523 -89.31238 1205 ft 131 kts 316°
2026-04-24 14:32 43.13188 -89.32097 1032 ft 131 kts 316°
2026-04-24 14:32 43.13853 -89.32940 870 ft 126 kts 315°
2026-04-24 14:33 43.14312 -89.33533 862 ft 48 kts 317°
2026-04-24 14:33 43.14354 -89.33741 864 ft 21 kts 268°
2026-04-24 14:33 43.14350 -89.33947 866 ft 22 kts 268°
2026-04-24 14:33 43.14343 -89.34151 870 ft 21 kts 269°
2026-04-24 14:34 43.14334 -89.34332 871 ft 17 kts 230°
2026-04-24 14:34 43.14224 -89.34352 872 ft 16 kts 180°
2026-04-24 14:34 43.14118 -89.34338 870 ft 15 kts 159°
2026-04-24 14:34 43.14021 -89.34296 870 ft 14 kts 178°
2026-04-24 14:35 43.13919 -89.34297 867 ft 15 kts 180°
2026-04-24 14:35 43.13849 -89.34369 866 ft 14 kts 262°
2026-04-24 14:35 43.13827 -89.34506 857 ft 16 kts 233°
2026-04-24 14:35 43.13808 -89.34527 862 ft 0 kts 215°